Location: Izdebno
(52.6670°N, 16.2170°E)
Time: 03:03:50
(UTC+02:00)

Transit 2A - Pass Details

Date: 23 February 2024
Orbit: 596 x 956 km, 66.7° (Epoch: 21 April)

Event Time Altitude Azimuth Distance (km) Brightness Sun altitude
Rises 03:46:36 0° 321° (NW) 2,938 - -29.0°
Reaches altitude 10° 03:48:50 10° 325° (NW) 2,064 - -28.7°
Exits shadow 03:53:21 61° 39° (NE) 788 6.2 -28.1°
Maximum altitude 03:53:27 61° 46° (NE) 788 6.2 -28.1°
Drops below altitude 10° 03:58:31 10° 127° (SE) 2,261 8.8 -27.4°
Sets 04:01:03 0° 131° (SE) 3,245 9.6 -27.0°
